Year,Month,Day,Hour,Minute,Value (Times are PST for windspeed in km/hr)
2010,10,23,00,00,5.20
2010,10,23,00,01,7.00
2010,10,23,00,02,3.00
2010,10,23,00,03,1.40
2010,10,23,00,04,3.30
2010,10,23,00,05,1.30
2010,10,23,00,06,2.80
2010,10,23,00,07,1.20
2010,10,23,00,08,5.50
2010,10,23,00,09,4.30
2010,10,23,00,10,3.10
2010,10,23,00,11,4.70
2010,10,23,00,12,3.60
2010,10,23,00,13,2.90
2010,10,23,00,14,3.00
2010,10,23,00,15,1.70
2010,10,23,00,16,5.10
2010,10,23,00,17,5.80
2010,10,23,00,18,3.80
2010,10,23,00,19,5.10
2010,10,23,00,20,4.20
2010,10,23,00,21,2.80
2010,10,23,00,22,3.80
2010,10,23,00,23,0.80
2010,10,23,00,24,3.50
2010,10,23,00,25,2.00
2010,10,23,00,26,3.10
2010,10,23,00,27,8.30
2010,10,23,00,28,3.90
2010,10,23,00,29,3.70
2010,10,23,00,30,2.00
2010,10,23,00,31,2.90
2010,10,23,00,32,1.40
2010,10,23,00,33,2.70
2010,10,23,00,34,2.80
2010,10,23,00,35,3.80
2010,10,23,00,36,5.00
2010,10,23,00,37,3.80
2010,10,23,00,38,3.90
2010,10,23,00,39,5.10
2010,10,23,00,40,3.00
2010,10,23,00,41,3.90
2010,10,23,00,42,3.80
2010,10,23,00,43,2.60
2010,10,23,00,44,4.20
2010,10,23,00,45,3.40
2010,10,23,00,46,4.80
2010,10,23,00,47,0.70
2010,10,23,00,48,3.20
2010,10,23,00,49,2.80
2010,10,23,00,50,3.80
2010,10,23,00,51,2.50
2010,10,23,00,52,4.30
2010,10,23,00,53,7.30
2010,10,23,00,54,4.80
2010,10,23,00,55,3.80
2010,10,23,00,56,6.40
2010,10,23,00,57,5.50
2010,10,23,00,58,6.00
2010,10,23,00,59,4.70
2010,10,23,01,00,5.90
2010,10,23,01,01,7.00
2010,10,23,01,02,6.10
2010,10,23,01,03,7.20
2010,10,23,01,04,7.50
2010,10,23,01,05,7.60
2010,10,23,01,06,8.60
2010,10,23,01,07,8.10
2010,10,23,01,08,9.40
2010,10,23,01,09,6.80
2010,10,23,01,10,8.10
2010,10,23,01,11,9.20
2010,10,23,01,12,7.90
2010,10,23,01,13,7.10
2010,10,23,01,14,6.70
2010,10,23,01,15,6.80
2010,10,23,01,16,5.30
2010,10,23,01,17,5.90
2010,10,23,01,18,3.50
2010,10,23,01,19,2.50
2010,10,23,01,20,1.60
2010,10,23,01,21,2.90
2010,10,23,01,22,2.40
2010,10,23,01,23,4.50
2010,10,23,01,24,2.20
2010,10,23,01,25,2.70
2010,10,23,01,26,0.80
2010,10,23,01,27,0.90
2010,10,23,01,28,2.40
2010,10,23,01,29,0.20
2010,10,23,01,30,1.60
2010,10,23,01,31,3.60
2010,10,23,01,32,3.10
2010,10,23,01,33,0.70
2010,10,23,01,34,0.00
2010,10,23,01,35,0.50
2010,10,23,01,36,0.40
2010,10,23,01,37,0.50
2010,10,23,01,38,2.80
2010,10,23,01,39,1.10
2010,10,23,01,40,0.30
2010,10,23,01,41,0.30
2010,10,23,01,42,0.60
2010,10,23,01,43,0.30
2010,10,23,01,44,0.10
2010,10,23,01,45,0.20
2010,10,23,01,46,2.00
2010,10,23,01,47,0.80
2010,10,23,01,48,0.10
2010,10,23,01,49,0.10
2010,10,23,01,50,0.50
2010,10,23,01,51,0.30
2010,10,23,01,52,0.30
2010,10,23,01,53,0.10
2010,10,23,01,54,0.20
2010,10,23,01,55,0.00
2010,10,23,01,56,0.00
2010,10,23,01,57,0.00
2010,10,23,01,58,0.00
2010,10,23,01,59,0.00
2010,10,23,02,00,0.20
2010,10,23,02,01,0.00
2010,10,23,02,02,0.00
2010,10,23,02,03,0.40
2010,10,23,02,04,0.60
2010,10,23,02,05,0.30
2010,10,23,02,06,0.40
2010,10,23,02,07,0.20
2010,10,23,02,08,0.80
2010,10,23,02,09,0.90
2010,10,23,02,10,0.20
2010,10,23,02,11,2.50
2010,10,23,02,12,1.10
2010,10,23,02,13,1.70
2010,10,23,02,14,0.70
2010,10,23,02,15,0.00
2010,10,23,02,16,0.30
2010,10,23,02,17,1.70
2010,10,23,02,18,0.40
2010,10,23,02,19,0.20
2010,10,23,02,20,0.00
2010,10,23,02,21,0.00
2010,10,23,02,22,0.00
2010,10,23,02,23,0.10
2010,10,23,02,24,0.10
2010,10,23,02,25,0.80
2010,10,23,02,26,1.20
2010,10,23,02,27,0.60
2010,10,23,02,28,1.10
2010,10,23,02,29,0.50
2010,10,23,02,30,0.70
2010,10,23,02,31,1.00
2010,10,23,02,32,2.00
2010,10,23,02,33,1.20
2010,10,23,02,34,0.60
2010,10,23,02,35,1.40
2010,10,23,02,36,1.10
2010,10,23,02,37,0.50
2010,10,23,02,38,2.60
2010,10,23,02,39,1.80
2010,10,23,02,40,0.40
2010,10,23,02,41,0.10
2010,10,23,02,42,0.30
2010,10,23,02,43,1.50
2010,10,23,02,44,1.10
2010,10,23,02,45,2.30
2010,10,23,02,46,2.00
2010,10,23,02,47,2.50
2010,10,23,02,48,1.80
2010,10,23,02,49,2.30
2010,10,23,02,50,0.50
2010,10,23,02,51,0.50
2010,10,23,02,52,0.20
2010,10,23,02,53,0.00
2010,10,23,02,54,0.10
2010,10,23,02,55,0.00
2010,10,23,02,56,0.80
2010,10,23,02,57,2.00
2010,10,23,02,58,0.10
2010,10,23,02,59,0.10
2010,10,23,03,00,0.60
2010,10,23,03,01,3.70
2010,10,23,03,02,4.10
2010,10,23,03,03,3.50
2010,10,23,03,04,1.60
2010,10,23,03,05,2.30
2010,10,23,03,06,6.40
2010,10,23,03,07,5.00
2010,10,23,03,08,4.10
2010,10,23,03,09,2.90
2010,10,23,03,10,1.20
2010,10,23,03,11,2.40
2010,10,23,03,12,3.60
2010,10,23,03,13,2.70
2010,10,23,03,14,5.20
2010,10,23,03,15,5.30
2010,10,23,03,16,1.30
2010,10,23,03,17,4.70
2010,10,23,03,18,4.90
2010,10,23,03,19,3.50
2010,10,23,03,20,3.60
2010,10,23,03,21,3.50
2010,10,23,03,22,2.60
2010,10,23,03,23,3.40
2010,10,23,03,24,4.30
2010,10,23,03,25,2.30
2010,10,23,03,26,2.70
2010,10,23,03,27,3.50
2010,10,23,03,28,4.80
2010,10,23,03,29,3.50
2010,10,23,03,30,1.50
2010,10,23,03,31,3.30
2010,10,23,03,32,4.70
2010,10,23,03,33,4.80
2010,10,23,03,34,3.90
2010,10,23,03,35,3.00
2010,10,23,03,36,5.10
2010,10,23,03,37,4.50
2010,10,23,03,38,3.50
2010,10,23,03,39,2.50
2010,10,23,03,40,2.60
2010,10,23,03,41,2.70
2010,10,23,03,42,2.30
2010,10,23,03,43,2.20
2010,10,23,03,44,2.30
2010,10,23,03,45,2.80
2010,10,23,03,46,3.40
2010,10,23,03,47,3.20
2010,10,23,03,48,2.40
2010,10,23,03,49,2.80
2010,10,23,03,50,2.80
2010,10,23,03,51,3.60
2010,10,23,03,52,4.20
2010,10,23,03,53,2.70
2010,10,23,03,54,4.50
2010,10,23,03,55,1.90
2010,10,23,03,56,4.40
2010,10,23,03,57,6.60
2010,10,23,03,58,5.60
2010,10,23,03,59,7.40
2010,10,23,04,00,6.80
2010,10,23,04,01,3.70
2010,10,23,04,02,3.50
2010,10,23,04,03,5.80
2010,10,23,04,04,5.50
2010,10,23,04,05,6.00
2010,10,23,04,06,6.70
2010,10,23,04,07,3.70
2010,10,23,04,08,5.10
2010,10,23,04,09,6.20
2010,10,23,04,10,4.50
2010,10,23,04,11,8.00
2010,10,23,04,12,5.00
2010,10,23,04,13,6.10
2010,10,23,04,14,7.50
2010,10,23,04,15,3.50
2010,10,23,04,16,7.60
2010,10,23,04,17,4.10
2010,10,23,04,18,5.10
2010,10,23,04,19,2.70
2010,10,23,04,20,4.30
2010,10,23,04,21,4.70
2010,10,23,04,22,5.20
2010,10,23,04,23,3.50
2010,10,23,04,24,8.90
2010,10,23,04,25,7.50
2010,10,23,04,26,5.90
2010,10,23,04,27,2.60
2010,10,23,04,28,6.70
2010,10,23,04,29,7.70
2010,10,23,04,30,5.40
2010,10,23,04,31,4.20
2010,10,23,04,32,6.90
2010,10,23,04,33,7.00
2010,10,23,04,34,7.20
2010,10,23,04,35,5.60
2010,10,23,04,36,5.80
2010,10,23,04,37,4.50
2010,10,23,04,38,5.80
2010,10,23,04,39,6.70
2010,10,23,04,40,7.00
2010,10,23,04,41,6.50
2010,10,23,04,42,4.60
2010,10,23,04,43,4.40
2010,10,23,04,44,4.90
2010,10,23,04,45,3.60
2010,10,23,04,46,2.40
2010,10,23,04,47,5.30
2010,10,23,04,48,3.30
2010,10,23,04,49,2.80
2010,10,23,04,50,3.70
2010,10,23,04,51,2.90
2010,10,23,04,52,4.50
2010,10,23,04,53,6.10
2010,10,23,04,54,3.50
2010,10,23,04,55,2.80
2010,10,23,04,56,6.50
2010,10,23,04,57,5.20
2010,10,23,04,58,4.00
2010,10,23,04,59,3.50
2010,10,23,05,00,2.60
2010,10,23,05,01,2.80
2010,10,23,05,02,2.50
2010,10,23,05,03,2.80
2010,10,23,05,04,4.60
2010,10,23,05,05,8.50
2010,10,23,05,06,5.90
2010,10,23,05,07,3.60
2010,10,23,05,08,2.20
2010,10,23,05,09,4.90
2010,10,23,05,10,1.90
2010,10,23,05,11,2.30
2010,10,23,05,12,2.70
2010,10,23,05,13,2.30
2010,10,23,05,14,3.00
2010,10,23,05,15,5.40
2010,10,23,05,16,6.90
2010,10,23,05,17,8.20
2010,10,23,05,18,2.60
2010,10,23,05,19,5.80
2010,10,23,05,20,5.10
2010,10,23,05,21,7.20
2010,10,23,05,22,5.40
2010,10,23,05,23,5.60
2010,10,23,05,24,1.60
2010,10,23,05,25,0.70
2010,10,23,05,26,1.00
2010,10,23,05,27,3.90
2010,10,23,05,28,1.10
2010,10,23,05,29,0.20
2010,10,23,05,30,0.20
2010,10,23,05,31,0.30
2010,10,23,05,32,2.20
2010,10,23,05,33,1.90
2010,10,23,05,34,2.70
2010,10,23,05,35,0.80
2010,10,23,05,36,3.10
2010,10,23,05,37,4.80
2010,10,23,05,38,5.00
2010,10,23,05,39,1.60
2010,10,23,05,40,2.20
2010,10,23,05,41,4.70
2010,10,23,05,42,2.00
2010,10,23,05,43,2.40
2010,10,23,05,44,6.70
2010,10,23,05,45,3.10
2010,10,23,05,46,2.70
2010,10,23,05,47,2.40
2010,10,23,05,48,1.60
2010,10,23,05,49,4.00
2010,10,23,05,50,2.60
2010,10,23,05,51,0.40
2010,10,23,05,52,2.00
2010,10,23,05,53,0.20
2010,10,23,05,54,3.90
2010,10,23,05,55,3.30
2010,10,23,05,56,2.40
2010,10,23,05,57,3.50
2010,10,23,05,58,1.80
2010,10,23,05,59,0.20
2010,10,23,06,00,1.00
2010,10,23,06,01,1.40
2010,10,23,06,02,2.00
2010,10,23,06,03,5.10
2010,10,23,06,04,2.20
2010,10,23,06,05,3.10
2010,10,23,06,06,1.70
2010,10,23,06,07,4.60
2010,10,23,06,08,4.70
2010,10,23,06,09,3.90
2010,10,23,06,10,1.50
2010,10,23,06,11,3.00
2010,10,23,06,12,1.40
2010,10,23,06,13,3.20
2010,10,23,06,14,2.50
2010,10,23,06,15,2.30
2010,10,23,06,16,2.40
2010,10,23,06,17,2.70
2010,10,23,06,18,4.10
2010,10,23,06,19,2.30
2010,10,23,06,20,5.00
2010,10,23,06,21,4.80
2010,10,23,06,22,5.10
2010,10,23,06,23,4.40
2010,10,23,06,24,6.30
2010,10,23,06,25,4.00
2010,10,23,06,26,5.30
2010,10,23,06,27,4.70
2010,10,23,06,28,3.00
2010,10,23,06,29,2.50
2010,10,23,06,30,2.60
2010,10,23,06,31,4.70
2010,10,23,06,32,3.20
2010,10,23,06,33,1.40
2010,10,23,06,34,3.50
2010,10,23,06,35,3.90
2010,10,23,06,36,2.30
2010,10,23,06,37,4.90
2010,10,23,06,38,5.10
2010,10,23,06,39,4.60
2010,10,23,06,40,3.50
2010,10,23,06,41,2.80
2010,10,23,06,42,3.10
2010,10,23,06,43,5.50
2010,10,23,06,44,3.80
2010,10,23,06,45,3.10
2010,10,23,06,46,4.10
2010,10,23,06,47,2.60
2010,10,23,06,48,3.60
2010,10,23,06,49,2.80
2010,10,23,06,50,2.60
2010,10,23,06,51,6.00
2010,10,23,06,52,6.10
2010,10,23,06,53,3.90
2010,10,23,06,54,1.70
2010,10,23,06,55,3.90
2010,10,23,06,56,5.00
2010,10,23,06,57,4.10
2010,10,23,06,58,5.80
2010,10,23,06,59,1.40
2010,10,23,07,00,1.80
2010,10,23,07,01,2.30
2010,10,23,07,02,1.40
2010,10,23,07,03,1.00
2010,10,23,07,04,0.70
2010,10,23,07,05,1.50
2010,10,23,07,06,1.00
2010,10,23,07,07,0.40
2010,10,23,07,08,1.30
2010,10,23,07,09,1.00
2010,10,23,07,10,4.30
2010,10,23,07,11,2.50
2010,10,23,07,12,5.50
2010,10,23,07,13,3.90
2010,10,23,07,14,4.10
2010,10,23,07,15,5.40
2010,10,23,07,16,5.20
2010,10,23,07,17,3.20
2010,10,23,07,18,3.90
2010,10,23,07,19,4.50
2010,10,23,07,20,4.60
2010,10,23,07,21,4.40
2010,10,23,07,22,3.60
2010,10,23,07,23,2.40
2010,10,23,07,24,2.70
2010,10,23,07,25,0.80
2010,10,23,07,26,0.90
2010,10,23,07,27,1.00
2010,10,23,07,28,1.00
2010,10,23,07,29,0.60
2010,10,23,07,30,2.40
2010,10,23,07,31,0.40
2010,10,23,07,32,1.00
2010,10,23,07,33,0.80
2010,10,23,07,34,1.90
2010,10,23,07,35,0.20
2010,10,23,07,36,0.00
2010,10,23,07,37,0.50
2010,10,23,07,38,0.20
2010,10,23,07,39,0.10
2010,10,23,07,40,1.60
2010,10,23,07,41,0.20
2010,10,23,07,42,2.70
2010,10,23,07,43,2.00
2010,10,23,07,44,1.60
2010,10,23,07,45,1.40
2010,10,23,07,46,1.00
2010,10,23,07,47,2.00
2010,10,23,07,48,3.90
2010,10,23,07,49,3.20
2010,10,23,07,50,1.90
2010,10,23,07,51,2.40
2010,10,23,07,52,2.60
2010,10,23,07,53,1.90
2010,10,23,07,54,1.70
2010,10,23,07,55,2.90
2010,10,23,07,56,2.40
2010,10,23,07,57,0.00
2010,10,23,07,58,3.10
2010,10,23,07,59,2.40
2010,10,23,08,00,1.80
2010,10,23,08,01,2.90
2010,10,23,08,02,5.80
2010,10,23,08,03,2.20
2010,10,23,08,04,3.80
2010,10,23,08,05,3.30
2010,10,23,08,06,5.40
2010,10,23,08,07,1.20
2010,10,23,08,08,4.60
2010,10,23,08,09,5.10
2010,10,23,08,10,6.20
2010,10,23,08,11,2.80
2010,10,23,08,12,3.90
2010,10,23,08,13,5.50
2010,10,23,08,14,3.40
2010,10,23,08,15,3.00
2010,10,23,08,16,3.50
2010,10,23,08,17,5.30
2010,10,23,08,18,3.90
2010,10,23,08,19,1.30
2010,10,23,08,20,3.20
2010,10,23,08,21,5.70
2010,10,23,08,22,4.10
2010,10,23,08,23,5.40
2010,10,23,08,24,4.40
2010,10,23,08,25,2.90
2010,10,23,08,26,4.10
2010,10,23,08,27,4.80
2010,10,23,08,28,4.70
2010,10,23,08,29,5.10
2010,10,23,08,30,8.80
2010,10,23,08,31,9.30
2010,10,23,08,32,4.40
2010,10,23,08,33,7.60
2010,10,23,08,34,6.80
2010,10,23,08,35,4.30
2010,10,23,08,36,4.90
2010,10,23,08,37,8.10
2010,10,23,08,38,6.40
2010,10,23,08,39,5.70
2010,10,23,08,40,6.30
2010,10,23,08,41,0.40
2010,10,23,08,42,3.90
2010,10,23,08,43,5.80
2010,10,23,08,44,6.40
2010,10,23,08,45,9.40
2010,10,23,08,46,7.50
2010,10,23,08,47,10.90
2010,10,23,08,48,13.10
2010,10,23,08,49,11.30
2010,10,23,08,50,9.90
2010,10,23,08,51,14.50
2010,10,23,08,52,9.50
2010,10,23,08,53,10.40
2010,10,23,08,54,10.90
2010,10,23,08,55,8.10
2010,10,23,08,56,3.50
2010,10,23,08,57,8.90
2010,10,23,08,58,12.20
2010,10,23,08,59,11.00
2010,10,23,09,00,8.30
2010,10,23,09,01,13.70
2010,10,23,09,02,11.40
2010,10,23,09,03,11.60
2010,10,23,09,04,9.60
2010,10,23,09,05,11.50
2010,10,23,09,06,5.60
2010,10,23,09,07,7.10
2010,10,23,09,08,8.10
2010,10,23,09,09,7.60
2010,10,23,09,10,12.80
2010,10,23,09,11,8.70
2010,10,23,09,12,8.10
2010,10,23,09,13,9.00
2010,10,23,09,14,6.50
2010,10,23,09,15,8.00
2010,10,23,09,16,8.60
2010,10,23,09,17,8.90
2010,10,23,09,18,6.70
2010,10,23,09,19,7.60
2010,10,23,09,20,8.20
2010,10,23,09,21,10.20
2010,10,23,09,22,11.10
2010,10,23,09,23,16.50
2010,10,23,09,24,8.60
2010,10,23,09,25,16.70
2010,10,23,09,26,11.00
2010,10,23,09,27,10.60
2010,10,23,09,28,10.60
2010,10,23,09,29,11.30
2010,10,23,09,30,9.20
2010,10,23,09,31,8.50
2010,10,23,09,32,14.70
2010,10,23,09,33,10.20
2010,10,23,09,34,11.60
2010,10,23,09,35,10.90
2010,10,23,09,36,9.50
2010,10,23,09,37,10.10
2010,10,23,09,38,14.70
2010,10,23,09,39,13.90
2010,10,23,09,40,7.70
2010,10,23,09,41,10.50
2010,10,23,09,42,12.90
2010,10,23,09,43,8.90
2010,10,23,09,44,12.00
2010,10,23,09,45,12.20
2010,10,23,09,46,14.20
2010,10,23,09,47,13.70
2010,10,23,09,48,12.20
2010,10,23,09,49,9.30
2010,10,23,09,50,13.40
2010,10,23,09,51,12.70
2010,10,23,09,52,13.00
2010,10,23,09,53,11.90
2010,10,23,09,54,9.50
2010,10,23,09,55,15.60
2010,10,23,09,56,15.90
2010,10,23,09,57,13.90
2010,10,23,09,58,16.30
2010,10,23,09,59,13.50
2010,10,23,10,00,13.90
2010,10,23,10,01,15.50
2010,10,23,10,02,13.50
2010,10,23,10,03,18.60
2010,10,23,10,04,16.60
2010,10,23,10,05,20.90
2010,10,23,10,06,14.10
2010,10,23,10,07,17.90
2010,10,23,10,08,25.70
2010,10,23,10,09,21.30
2010,10,23,10,10,20.40
2010,10,23,10,11,18.30
2010,10,23,10,12,15.90
2010,10,23,10,13,19.60
2010,10,23,10,14,15.00
2010,10,23,10,15,12.40
2010,10,23,10,16,9.00
2010,10,23,10,17,18.60
2010,10,23,10,18,24.40
2010,10,23,10,19,26.20
2010,10,23,10,20,23.00
2010,10,23,10,21,19.30
2010,10,23,10,22,18.50
2010,10,23,10,23,19.00
2010,10,23,10,24,20.00
2010,10,23,10,25,17.90
2010,10,23,10,26,16.30
2010,10,23,10,27,16.70
2010,10,23,10,28,13.80
2010,10,23,10,29,16.80
2010,10,23,10,30,19.40
2010,10,23,10,31,18.10
2010,10,23,10,32,20.20
2010,10,23,10,33,24.20
2010,10,23,10,34,19.50
2010,10,23,10,35,17.90
2010,10,23,10,36,19.00
2010,10,23,10,37,17.60
2010,10,23,10,38,18.90
2010,10,23,10,39,26.30
2010,10,23,10,40,22.20
2010,10,23,10,41,22.90
2010,10,23,10,42,16.40
2010,10,23,10,43,19.70
2010,10,23,10,44,17.40
2010,10,23,10,45,18.20
2010,10,23,10,46,19.30
2010,10,23,10,47,17.80
2010,10,23,10,48,15.10
2010,10,23,10,49,15.10
2010,10,23,10,50,16.30
2010,10,23,10,51,20.00
2010,10,23,10,52,22.70
2010,10,23,10,53,17.40
2010,10,23,10,54,17.10
2010,10,23,10,55,18.00
2010,10,23,10,56,12.70
2010,10,23,10,57,18.80
2010,10,23,10,58,15.40
2010,10,23,10,59,18.90
2010,10,23,11,00,19.10
2010,10,23,11,01,20.70
2010,10,23,11,02,14.60
2010,10,23,11,03,20.40
2010,10,23,11,04,16.30
2010,10,23,11,05,17.40
2010,10,23,11,06,17.20
2010,10,23,11,07,17.30
2010,10,23,11,08,19.30
2010,10,23,11,09,21.30
2010,10,23,11,10,21.50
2010,10,23,11,11,15.40
2010,10,23,11,12,17.70
2010,10,23,11,13,20.80
2010,10,23,11,14,23.70
2010,10,23,11,15,21.80
2010,10,23,11,16,25.30
2010,10,23,11,17,20.90
2010,10,23,11,18,17.40
2010,10,23,11,19,18.30
2010,10,23,11,20,20.20
2010,10,23,11,21,23.60
2010,10,23,11,22,17.90
2010,10,23,11,23,23.30
2010,10,23,11,24,17.30
2010,10,23,11,25,16.70
2010,10,23,11,26,16.00
2010,10,23,11,27,20.20
2010,10,23,11,28,21.70
2010,10,23,11,29,23.80
2010,10,23,11,30,20.30
2010,10,23,11,31,20.00
2010,10,23,11,32,25.80
2010,10,23,11,33,19.70
2010,10,23,11,34,23.40
2010,10,23,11,35,19.60
2010,10,23,11,36,25.40
2010,10,23,11,37,22.30
2010,10,23,11,38,23.10
2010,10,23,11,39,27.30
2010,10,23,11,40,26.20
2010,10,23,11,41,25.20
2010,10,23,11,42,24.10
2010,10,23,11,43,24.90
2010,10,23,11,44,18.90
2010,10,23,11,45,18.30
2010,10,23,11,46,24.40
2010,10,23,11,47,28.60
2010,10,23,11,48,21.60
2010,10,23,11,49,29.00
2010,10,23,11,50,31.50
2010,10,23,11,51,30.40
2010,10,23,11,52,25.00
2010,10,23,11,53,26.50
2010,10,23,11,54,21.60
2010,10,23,11,55,27.00
2010,10,23,11,56,28.10
2010,10,23,11,57,28.70
2010,10,23,11,58,29.90
2010,10,23,11,59,22.90
2010,10,23,12,00,22.60
2010,10,23,12,01,27.00
2010,10,23,12,02,24.70
2010,10,23,12,03,25.00
2010,10,23,12,04,24.50
2010,10,23,12,05,27.70
2010,10,23,12,06,28.90
2010,10,23,12,07,24.60
2010,10,23,12,08,26.00
2010,10,23,12,09,25.90
2010,10,23,12,10,20.80
2010,10,23,12,11,26.50
2010,10,23,12,12,24.50
2010,10,23,12,13,21.90
2010,10,23,12,14,18.90
2010,10,23,12,15,21.60
2010,10,23,12,16,28.10
2010,10,23,12,17,24.00
2010,10,23,12,18,19.80
2010,10,23,12,19,16.80
2010,10,23,12,20,24.40
2010,10,23,12,21,25.60
2010,10,23,12,22,27.80
2010,10,23,12,23,27.00
2010,10,23,12,24,25.20
2010,10,23,12,25,23.40
2010,10,23,12,26,26.70
2010,10,23,12,27,23.70
2010,10,23,12,28,21.70
2010,10,23,12,29,27.40
2010,10,23,12,30,28.50
2010,10,23,12,31,25.30
2010,10,23,12,32,21.90
2010,10,23,12,33,30.10
2010,10,23,12,34,23.40
2010,10,23,12,35,28.70
2010,10,23,12,36,17.90
2010,10,23,12,37,24.00
2010,10,23,12,38,24.30
2010,10,23,12,39,24.60
2010,10,23,12,40,24.70
2010,10,23,12,41,20.70
2010,10,23,12,42,19.20
2010,10,23,12,43,25.80
2010,10,23,12,44,20.40
2010,10,23,12,45,24.00
2010,10,23,12,46,25.50
2010,10,23,12,47,22.10
2010,10,23,12,48,19.60
2010,10,23,12,49,17.20
2010,10,23,12,50,21.70
2010,10,23,12,51,28.60
2010,10,23,12,52,23.60
2010,10,23,12,53,23.30
2010,10,23,12,54,24.50
2010,10,23,12,55,26.30
2010,10,23,12,56,23.10
2010,10,23,12,57,27.60
2010,10,23,12,58,25.50
2010,10,23,12,59,19.70
2010,10,23,13,00,19.20
2010,10,23,13,01,20.70
2010,10,23,13,02,26.20
2010,10,23,13,03,22.80
2010,10,23,13,04,27.00
2010,10,23,13,05,22.80
2010,10,23,13,06,24.80
2010,10,23,13,07,25.00
2010,10,23,13,08,26.60
2010,10,23,13,09,27.10
2010,10,23,13,10,26.50
2010,10,23,13,11,20.90
2010,10,23,13,12,21.50
2010,10,23,13,13,19.20
2010,10,23,13,14,23.80
2010,10,23,13,15,23.40
2010,10,23,13,16,21.20
2010,10,23,13,17,22.10
2010,10,23,13,18,22.90
2010,10,23,13,19,19.80
2010,10,23,13,20,25.60
2010,10,23,13,21,25.60
2010,10,23,13,22,25.10
2010,10,23,13,23,17.40
2010,10,23,13,24,25.20
2010,10,23,13,25,19.50
2010,10,23,13,26,26.30
2010,10,23,13,27,21.00
2010,10,23,13,28,20.60
2010,10,23,13,29,21.50
2010,10,23,13,30,26.30
2010,10,23,13,31,21.20
2010,10,23,13,32,17.30
2010,10,23,13,33,20.60
2010,10,23,13,34,19.70
2010,10,23,13,35,19.30
2010,10,23,13,36,17.10
2010,10,23,13,37,25.70
2010,10,23,13,38,30.00
2010,10,23,13,39,28.00
2010,10,23,13,40,20.80
2010,10,23,13,41,23.00
2010,10,23,13,42,22.90
2010,10,23,13,43,15.20
2010,10,23,13,44,22.40
2010,10,23,13,45,25.30
2010,10,23,13,46,20.70
2010,10,23,13,47,17.10
2010,10,23,13,48,29.50
2010,10,23,13,49,18.40
2010,10,23,13,50,19.40
2010,10,23,13,51,31.20
2010,10,23,13,52,22.90
2010,10,23,13,53,19.60
2010,10,23,13,54,20.80
2010,10,23,13,55,24.80
2010,10,23,13,56,28.60
2010,10,23,13,57,17.00
2010,10,23,13,58,21.90
2010,10,23,13,59,28.80
2010,10,23,14,00,24.50
2010,10,23,14,01,26.60
2010,10,23,14,02,22.00
2010,10,23,14,03,26.10
2010,10,23,14,04,23.80
2010,10,23,14,05,23.50
2010,10,23,14,06,16.90
2010,10,23,14,07,17.80
2010,10,23,14,08,19.50
2010,10,23,14,09,16.60
2010,10,23,14,10,21.20
2010,10,23,14,11,15.70
2010,10,23,14,12,18.00
2010,10,23,14,13,18.40
2010,10,23,14,14,24.10
2010,10,23,14,15,20.00
2010,10,23,14,16,22.20
2010,10,23,14,17,21.70
2010,10,23,14,18,22.00
2010,10,23,14,19,22.00
2010,10,23,14,20,18.00
2010,10,23,14,21,17.20
2010,10,23,14,22,13.10
2010,10,23,14,23,14.90
2010,10,23,14,24,13.80
2010,10,23,14,25,15.00
2010,10,23,14,26,20.50
2010,10,23,14,27,20.60
2010,10,23,14,28,15.40
2010,10,23,14,29,18.80
2010,10,23,14,30,21.80
2010,10,23,14,31,15.60
2010,10,23,14,32,16.30
2010,10,23,14,33,16.70
2010,10,23,14,34,16.70
2010,10,23,14,35,9.70
2010,10,23,14,36,12.60
2010,10,23,14,37,9.00
2010,10,23,14,38,13.80
2010,10,23,14,39,10.10
2010,10,23,14,40,14.00
2010,10,23,14,41,18.90
2010,10,23,14,42,15.60
2010,10,23,14,43,12.60
2010,10,23,14,44,13.40
2010,10,23,14,45,8.10
2010,10,23,14,46,14.50
2010,10,23,14,47,15.30
2010,10,23,14,48,9.70
2010,10,23,14,49,8.00
2010,10,23,14,50,13.30
2010,10,23,14,51,12.40
2010,10,23,14,52,13.80
2010,10,23,14,53,14.70
2010,10,23,14,54,13.00
2010,10,23,14,55,11.70
2010,10,23,14,56,12.10
2010,10,23,14,57,18.30
2010,10,23,14,58,15.60
2010,10,23,14,59,14.00
2010,10,23,15,00,11.70
2010,10,23,15,01,11.70
2010,10,23,15,02,23.10
2010,10,23,15,03,15.00
2010,10,23,15,04,10.70
2010,10,23,15,05,17.60
2010,10,23,15,06,15.40
2010,10,23,15,07,10.10
2010,10,23,15,08,9.50
2010,10,23,15,09,15.00
2010,10,23,15,10,20.30
2010,10,23,15,11,22.00
2010,10,23,15,12,17.10
2010,10,23,15,13,21.60
2010,10,23,15,14,19.20
2010,10,23,15,15,21.70
2010,10,23,15,16,20.90
2010,10,23,15,17,18.40
2010,10,23,15,18,20.60
2010,10,23,15,19,16.60
2010,10,23,15,20,21.40
2010,10,23,15,21,14.80
2010,10,23,15,22,19.10
2010,10,23,15,23,14.70
2010,10,23,15,24,15.40
2010,10,23,15,25,12.20
2010,10,23,15,26,19.20
2010,10,23,15,27,22.90
2010,10,23,15,28,23.50
2010,10,23,15,29,23.20
2010,10,23,15,30,22.20
2010,10,23,15,31,27.50
2010,10,23,15,32,24.40
2010,10,23,15,33,20.70
2010,10,23,15,34,17.30
2010,10,23,15,35,14.30
2010,10,23,15,36,15.30
2010,10,23,15,37,19.10
2010,10,23,15,38,18.70
2010,10,23,15,39,20.40
2010,10,23,15,40,26.80
2010,10,23,15,41,17.90
2010,10,23,15,42,20.00
2010,10,23,15,43,22.00
2010,10,23,15,44,16.70
2010,10,23,15,45,25.10
2010,10,23,15,46,17.10
2010,10,23,15,47,18.40
2010,10,23,15,48,23.60
2010,10,23,15,49,21.10
2010,10,23,15,50,28.60
2010,10,23,15,51,23.20
2010,10,23,15,52,19.60
2010,10,23,15,53,25.50
2010,10,23,15,54,19.70
2010,10,23,15,55,21.40
2010,10,23,15,56,21.90
2010,10,23,15,57,22.40
2010,10,23,15,58,24.50
2010,10,23,15,59,21.10
2010,10,23,16,00,23.30
2010,10,23,16,01,23.20
2010,10,23,16,02,21.60
2010,10,23,16,03,27.10
2010,10,23,16,04,24.50
2010,10,23,16,05,23.30
2010,10,23,16,06,27.30
2010,10,23,16,07,22.70
2010,10,23,16,08,28.20
2010,10,23,16,09,21.90
2010,10,23,16,10,24.30
2010,10,23,16,11,22.50
2010,10,23,16,12,23.30
2010,10,23,16,13,25.30
2010,10,23,16,14,29.10
2010,10,23,16,15,24.20
2010,10,23,16,16,24.50
2010,10,23,16,17,29.30
2010,10,23,16,18,28.40
2010,10,23,16,19,24.00
2010,10,23,16,20,23.70
2010,10,23,16,21,24.80
2010,10,23,16,22,25.00
2010,10,23,16,23,28.30
2010,10,23,16,24,25.20
2010,10,23,16,25,29.00
2010,10,23,16,26,25.50
2010,10,23,16,27,21.90
2010,10,23,16,28,14.00
2010,10,23,16,29,20.90
2010,10,23,16,30,24.30
2010,10,23,16,31,23.50
2010,10,23,16,32,28.50
2010,10,23,16,33,27.60
2010,10,23,16,34,23.10
2010,10,23,16,35,24.60
2010,10,23,16,36,23.00
2010,10,23,16,37,19.50
2010,10,23,16,38,27.40
2010,10,23,16,39,27.40
2010,10,23,16,40,29.70
2010,10,23,16,41,17.80
2010,10,23,16,42,20.20
2010,10,23,16,43,22.60
2010,10,23,16,44,25.30
2010,10,23,16,45,24.90
2010,10,23,16,46,23.90
2010,10,23,16,47,21.90
2010,10,23,16,48,19.50
2010,10,23,16,49,15.90
2010,10,23,16,50,15.10
2010,10,23,16,51,25.00
2010,10,23,16,52,21.70
2010,10,23,16,53,24.40
2010,10,23,16,54,20.20
2010,10,23,16,55,22.90
2010,10,23,16,56,18.50
2010,10,23,16,57,20.50
2010,10,23,16,58,21.50
2010,10,23,16,59,22.50
2010,10,23,17,00,20.80
2010,10,23,17,01,20.70
2010,10,23,17,02,22.50
2010,10,23,17,03,21.00
2010,10,23,17,04,21.40
2010,10,23,17,05,21.10
2010,10,23,17,06,20.20
2010,10,23,17,07,19.20
2010,10,23,17,08,22.50
2010,10,23,17,09,25.20
2010,10,23,17,10,25.10
2010,10,23,17,11,17.60
2010,10,23,17,12,26.50
2010,10,23,17,13,22.50
2010,10,23,17,14,24.10
2010,10,23,17,15,18.80
2010,10,23,17,16,19.60
2010,10,23,17,17,21.80
2010,10,23,17,18,21.80
2010,10,23,17,19,23.90
2010,10,23,17,20,28.40
2010,10,23,17,21,16.70
2010,10,23,17,22,20.70
2010,10,23,17,23,22.70
2010,10,23,17,24,13.40
2010,10,23,17,25,20.80
2010,10,23,17,26,23.70
2010,10,23,17,27,29.00
2010,10,23,17,28,29.00
2010,10,23,17,29,29.00
2010,10,23,17,30,29.00
2010,10,23,17,31,26.70
2010,10,23,17,32,29.20
2010,10,23,17,33,23.00
2010,10,23,17,34,25.40
2010,10,23,17,35,25.40
2010,10,23,17,36,21.10
2010,10,23,17,37,21.60
2010,10,23,17,38,20.10
2010,10,23,17,39,20.60
2010,10,23,17,40,24.00
2010,10,23,17,41,21.50
2010,10,23,17,42,23.40
2010,10,23,17,43,23.10